Overview Statistics Trail Chart Weather Telemetry Raw packets
 

This is the latest recevied weather packets stored in our database for station/object K0CVS. If no packets are shown the sender has not sent any weather packets the latest 10 day(s).

<< 104 105 106 107 108 109 110 >>
Time Temp. Humidity Pressure Rain* Wind** Luminosity Snow
1787778702 32.78° C 45% 1017 hPa 0 mm - 397 W/m² -
1787778398 32.78° C 44% 1017 hPa 0 mm - 276 W/m² -
1787778093 33.33° C 43% 1016.9 hPa 0 mm - 226 W/m² -
1787777792 33.33° C 43% 1017.2 hPa 0 mm - 314 W/m² -
1787777489 32.78° C 44% 1017 hPa 0 mm - 327 W/m² -
1787777189 32.78° C 45% 1017.3 hPa 0 mm - 484 W/m² -
1787776888 32.78° C 43% 1017.2 hPa 0 mm - 434 W/m² -
1787776587 32.78° C 44% 1017.2 hPa 0 mm - 447 W/m² -
1787776286 32.78° C 44% 1017.3 hPa 0 mm - 483 W/m² -
1787775984 32.78° C 44% 1017.4 hPa 0 mm - 88 W/m² -
1787775680 32.78° C 44% 1017.4 hPa 0 mm - 96 W/m² -
1787775378 32.78° C 44% 1017.4 hPa 0 mm - 98 W/m² -
1787775073 32.78° C 45% 1017.2 hPa 0 mm - 99 W/m² -
1787774772 32.78° C 44% 1017.6 hPa 0 mm - 108 W/m² -
1787774467 32.78° C 45% 1017.6 hPa 0 mm - 111 W/m² -
1787774166 32.78° C 45% 1017.5 hPa 0 mm - 117 W/m² -
1787773865 32.78° C 44% 1017.6 hPa 0 mm - 230 W/m² -
1787773563 32.78° C 47% 1017.6 hPa 0 mm - 562 W/m² -
1787773260 32.78° C 43% 1017.6 hPa 0 mm - 366 W/m² -
1787772955 33.33° C 46% 1017.5 hPa 0 mm - 620 W/m² -
1787772651 33.33° C 51% 1017.6 hPa 0 mm - 440 W/m² -
1787772349 33.33° C 51% 1017.4 hPa 0 mm - 631 W/m² -
1787772048 33.33° C 50% 1017.6 hPa 0 mm - 628 W/m² -
1787771743 32.78° C 53% 1017.4 hPa 0 mm - 619 W/m² -
1787771442 32.78° C 54% 1017.4 hPa 0 mm - 625 W/m² -

* Rain latest hour (hover to see other rain measurements)
** Current wind speed in m/s (hover to see current wind gust speed)